TimeMDT,TemperatureF,Dew PointF,Humidity,Sea Level PressureIn,VisibilityMPH,Wind Direction,Wind SpeedMPH,Gust SpeedMPH,PrecipitationIn,Events,Conditions,WindDirDegrees,DateUTC
12:53 AM,28.4,19.4,69,30.15,10.0,ENE,4.6,-,N/A,,Clear,70,2013-04-26 06:53:00
1:53 AM,26.1,17.1,69,30.09,10.0,NNE,5.8,-,N/A,,Clear,30,2013-04-26 07:53:00
2:53 AM,24.1,18.0,77,30.09,10.0,WNW,5.8,-,N/A,,Clear,300,2013-04-26 08:53:00
3:53 AM,25.0,16.0,69,30.09,10.0,NNW,5.8,-,N/A,,Clear,340,2013-04-26 09:53:00
4:53 AM,26.1,18.0,71,30.11,10.0,ENE,4.6,-,N/A,,Clear,70,2013-04-26 10:53:00
5:53 AM,21.9,16.0,78,30.14,10.0,NE,3.5,-,N/A,,Clear,50,2013-04-26 11:53:00
6:53 AM,21.9,17.1,82,30.19,10.0,Calm,Calm,-,N/A,,Clear,0,2013-04-26 12:53:00
7:53 AM,28.9,19.9,69,30.20,10.0,Calm,Calm,-,N/A,,Clear,0,2013-04-26 13:53:00
8:53 AM,36.0,19.9,52,30.22,10.0,Calm,Calm,-,N/A,,Clear,0,2013-04-26 14:53:00
9:53 AM,44.1,19.0,37,30.22,10.0,Variable,3.5,-,N/A,,Clear,0,2013-04-26 15:53:00
10:53 AM,50.0,15.1,25,30.20,10.0,Calm,Calm,-,N/A,,Clear,0,2013-04-26 16:53:00
11:53 AM,54.0,15.1,22,30.19,10.0,Variable,3.5,-,N/A,,Clear,0,2013-04-26 17:53:00
12:53 PM,55.9,14.0,19,30.16,10.0,Variable,3.5,-,N/A,,Clear,0,2013-04-26 18:53:00
1:53 PM,57.0,15.1,19,30.16,10.0,SW,3.5,-,N/A,,Partly Cloudy,220,2013-04-26 19:53:00
2:53 PM,61.0,12.9,15,30.15,10.0,NNW,10.4,20.7,N/A,,Clear,330,2013-04-26 20:53:00
3:53 PM,61.0,10.9,14,30.15,10.0,Variable,5.8,18.4,N/A,,Clear,0,2013-04-26 21:53:00
4:53 PM,61.0,10.9,14,30.14,10.0,WNW,12.7,17.3,N/A,,Clear,300,2013-04-26 22:53:00
5:53 PM,60.1,12.0,15,30.17,10.0,NNW,8.1,-,N/A,,Clear,340,2013-04-26 23:53:00
6:53 PM,57.9,12.9,17,30.18,10.0,NW,11.5,19.6,N/A,,Clear,310,2013-04-27 00:53:00
7:53 PM,52.0,19.9,28,30.17,10.0,NW,8.1,-,N/A,,Clear,310,2013-04-27 01:53:00
8:53 PM,42.1,21.9,45,30.22,10.0,NNW,10.4,-,N/A,,Clear,340,2013-04-27 02:53:00
9:53 PM,39.9,25.0,55,30.21,10.0,NNW,12.7,-,N/A,,Clear,340,2013-04-27 03:53:00
10:53 PM,37.0,26.1,65,30.19,10.0,NNW,12.7,-,N/A,,Clear,340,2013-04-27 04:53:00
11:53 PM,33.1,24.1,70,30.20,10.0,NNW,11.5,-,N/A,,Clear,340,2013-04-27 05:53:00